FLOCK 4S-10 (47523 NORAD) Tracking and Keplerian Element Data

This shows tracking and keplerian element data for the satellite.

Feedback or suggestion? Click here.




ElementValue
Catalog47523
NameFLOCK 4S-10
Epoch Orbit1198
Epoch Day101.91581421
Epoch Year2021
RAAN164.1863
Inclination97.4957
Eccentricity0.000819
Argument of Perigee359.1301
Mean Anonmoly0.9913
Mean Motion15.11799986
Decay Rate1.866E-05
L11 47523U 21006DP 21101.91581421 .00001866 00000-0 11299-3 0 9992
L22 47523 97.4957 164.1863 0008190 359.1301 0.9913 15.11799986 11980

Live tracking and technical data element details for FLOCK 4S-10 (NORAD 47523). FLOCK 4S-10 can be tracked NOW for your location showing map with azimuth and elevation plus other details from your city location.

Track the satellite on the map from your city or location and see movement details for azimuth, elevation, latitude, longitude, range, height, and movement on the map or in text.







IsCatalogInMostPopularTable: catalog: 47523, numindb: 13
Update: records affected: 1



GetName: 47523 FLOCK 4S-10

Hit Count: updated at: Tue, 13 Apr 2021 04:57:07 GMT